Weather History for Richlands, VA

Change the Weather History Date:

Monday, November 19, 2012

  Actual Average (KBLF) Record (KBLF)
Temperature  
Mean Temperature 48 °F 46 °F  
Max Temperature 60 °F 54 °F 74 °F (1985)
Min Temperature 37 °F 38 °F 12 °F (2014)
Degree Days  
Heating Degree Days 16 19  
Month to date heating degree days 304  
Since 1 July heating degree days 668  
Cooling Degree Days 0 0  
Month to date cooling degree days 0  
Year to date cooling degree days 851  
Moisture  
Dew Point 37 °F    
Average Humidity 72    
Maximum Humidity 100    
Minimum Humidity 45    
Precipitation  
Precipitation 0.00 in 0.09 in 0.77 in (1984)
Month to date precipitation 1.65  
Year to date precipitation 35.68  
Snow  
Snow 0.00 in - - ()
Month to date snowfall  
Since 1 July snowfall  
Since 1 September snowfall  
Snow Depth -    
Sea Level Pressure  
Sea Level Pressure 30.27 in    
Wind  
Wind Speed 2 mph (North)    
Max Wind Speed 7 mph    
Max Gust Speed -    
Visibility 10 miles    
Events      
T = Trace of Precipitation, MM = Missing Value Source: NWS Daily Summary

Daily Weather History Graph

Daily Weather History Graph

Search for Another Location

Airport:

Trip Planner

Search our weather history database for the weather conditions in past years. The results will help you decide how hot, cold, wet, or windy it might be!

Date:

Astronomy

Nov. 19, 2012 Rise Set
Actual Time 7:10 AM EST 5:14 PM EST
Civil Twilight 6:42 AM EST 5:42 PM EST
Nautical Twilight 6:10 AM EST 6:14 PM EST
Astronomical Twilight 5:39 AM EST 6:45 PM EST
Moon 12:15 PM EST (11/19) 11:36 PM EST (11/19)
Length of Visible Light 10h 59m
Length of Day
10h 04m
Waxing Crescent, 40% of the Moon is Illuminated
Nov 19
Waxing Crescent
Nov 20
First Quarter
Nov 28
Full
Dec 6
Last Quarter
Dec 13
New

Hourly Weather History & Observations

Time (EST) Temp. Windchill Dew Point Humidity Pressure Visibility Wind Dir Wind Speed Gust Speed Precip Events Conditions
12:15 AM 39.2 °F 37.0 °F 30.2 °F 70% 30.36 in 10.0 mi ESE 3.5 mph - N/A   Clear
12:35 AM 37.4 °F 32.1 °F 32.0 °F 81% 30.35 in 10.0 mi East 6.9 mph - N/A   Clear
12:55 AM 37.4 °F 32.8 °F 30.2 °F 75% 30.35 in 10.0 mi East 5.8 mph - N/A   Clear
1:15 AM 37.4 °F 34.9 °F 30.2 °F 75% 30.34 in 10.0 mi Variable 3.5 mph - N/A   Clear
1:55 AM 37.4 °F 33.8 °F 30.2 °F 75% 30.34 in 10.0 mi East 4.6 mph - N/A   Clear
2:15 AM 37.4 °F 34.9 °F 32.0 °F 81% 30.34 in 10.0 mi NE 3.5 mph - N/A   Clear
2:35 AM 37.4 °F 34.9 °F 32.0 °F 81% 30.34 in 10.0 mi Variable 3.5 mph - N/A   Clear
2:55 AM 37.4 °F - 33.8 °F 87% 30.33 in 10.0 mi Calm Calm - N/A   Clear
3:15 AM 37.4 °F - 33.8 °F 87% 30.34 in 10.0 mi Calm Calm - N/A   Clear
3:35 AM 37.4 °F - 35.6 °F 93% 30.33 in 10.0 mi Calm Calm - N/A   Clear
3:55 AM 37.4 °F 34.9 °F 35.6 °F 93% 30.32 in 10.0 mi Variable 3.5 mph - N/A   Clear
4:15 AM 37.4 °F - 37.4 °F 100% 30.32 in 10.0 mi Calm Calm - N/A   Clear
4:35 AM 37.4 °F - 35.6 °F 93% 30.32 in 10.0 mi Calm Calm - N/A   Clear
4:55 AM 37.4 °F - 37.4 °F 100% 30.32 in 10.0 mi Calm Calm - N/A   Clear
5:15 AM 37.4 °F - 37.4 °F 100% 30.32 in 10.0 mi Calm Calm - N/A   Clear
5:35 AM 37.4 °F - 37.4 °F 100% 30.33 in 10.0 mi Calm Calm - N/A   Clear
5:55 AM 37.4 °F - 37.4 °F 100% 30.32 in 10.0 mi Calm Calm - N/A   Clear
6:15 AM 37.4 °F - 37.4 °F 100% 30.32 in 10.0 mi Calm Calm - N/A   Clear
6:35 AM 37.4 °F 33.8 °F 37.4 °F 100% 30.32 in 10.0 mi NE 4.6 mph - N/A   Clear
6:55 AM 37.4 °F 34.9 °F 37.4 °F 100% 30.33 in 10.0 mi NNE 3.5 mph - N/A   Clear
7:15 AM 37.4 °F - 37.4 °F 100% 30.32 in 10.0 mi Calm Calm - N/A   Clear
7:35 AM 37.4 °F - 37.4 °F 100% 30.32 in 10.0 mi Calm Calm - N/A   Clear
7:55 AM 39.2 °F 37.0 °F 39.2 °F 100% 30.31 in 10.0 mi NE 3.5 mph - N/A   Clear
8:15 AM 39.2 °F - 39.2 °F 100% 30.32 in 10.0 mi Calm Calm - N/A   Clear
8:35 AM 41.0 °F - 41.0 °F 100% 30.32 in 10.0 mi Calm Calm - N/A   Clear
8:55 AM 42.8 °F - 42.8 °F 100% 30.32 in 10.0 mi Calm Calm - N/A   Clear
9:15 AM 44.6 °F - 42.8 °F 93% 30.32 in 10.0 mi Calm Calm - N/A   Clear
9:35 AM 44.6 °F - 42.8 °F 93% 30.32 in 10.0 mi Calm Calm - N/A   Clear
9:55 AM 46.4 °F - 42.8 °F 87% 30.32 in 10.0 mi Calm Calm - N/A   Clear
10:15 AM 48.2 °F - 42.8 °F 82% 30.32 in 10.0 mi Calm Calm - N/A   Clear
10:35 AM 48.2 °F - 42.8 °F 82% 30.33 in - NNW 3.5 mph - N/A   Unknown
10:55 AM 53.6 °F - 44.6 °F 72% 30.32 in 10.0 mi Calm Calm - N/A   Clear
11:15 AM 53.6 °F - 44.6 °F 72% 30.30 in 10.0 mi Calm Calm - N/A   Clear
11:35 AM 55.4 °F - 44.6 °F 67% 30.29 in 10.0 mi Calm Calm - N/A   Clear
11:55 AM 55.4 °F - 42.8 °F 63% 30.28 in 10.0 mi Calm Calm - N/A   Clear
12:15 PM 57.2 °F - 42.8 °F 59% 30.27 in 10.0 mi Variable 4.6 mph - N/A   Clear
12:35 PM 57.2 °F - 39.2 °F 51% 30.27 in 10.0 mi NW 5.8 mph - N/A   Clear
12:55 PM 59.0 °F - 41.0 °F 51% 30.25 in 10.0 mi WNW 4.6 mph - N/A   Clear
1:15 PM 59.0 °F - 41.0 °F 51% 30.25 in 10.0 mi WNW 5.8 mph - N/A   Clear
1:35 PM 60.8 °F - 39.2 °F 45% 30.24 in 10.0 mi Variable 3.5 mph - N/A   Clear
1:55 PM 60.8 °F - 39.2 °F 45% 30.23 in 10.0 mi Variable 4.6 mph - N/A   Clear
2:15 PM 60.8 °F - 39.2 °F 45% 30.23 in 10.0 mi Variable 4.6 mph - N/A   Clear
2:35 PM 60.8 °F - 39.2 °F 45% 30.23 in 10.0 mi WNW 5.8 mph - N/A   Clear
2:55 PM 60.8 °F - 39.2 °F 45% 30.22 in 10.0 mi Variable 5.8 mph - N/A   Clear
3:15 PM 60.8 °F - 39.2 °F 45% 30.23 in 10.0 mi WSW 4.6 mph - N/A   Clear
3:35 PM 60.8 °F - 39.2 °F 45% 30.23 in 10.0 mi West 4.6 mph - N/A   Clear
3:55 PM 60.8 °F - 39.2 °F 45% 30.22 in 10.0 mi Calm Calm - N/A   Clear
4:15 PM 59.0 °F - 37.4 °F 45% 30.23 in 10.0 mi Calm Calm - N/A   Clear
4:35 PM 55.4 °F - 37.4 °F 51% 30.23 in 10.0 mi Calm Calm - N/A   Clear
4:55 PM 55.4 °F - 37.4 °F 51% 30.23 in 10.0 mi SW 4.6 mph - N/A   Clear
5:15 PM 53.6 °F - 37.4 °F 54% 30.22 in 10.0 mi Calm Calm - N/A   Clear
5:35 PM 53.6 °F - 37.4 °F 54% 30.22 in 10.0 mi WNW 4.6 mph - N/A   Clear
5:55 PM 53.6 °F - 35.6 °F 51% 30.22 in 10.0 mi WNW 4.6 mph - N/A   Clear
6:15 PM 53.6 °F - 35.6 °F 51% 30.22 in 10.0 mi North 3.5 mph - N/A   Clear
6:35 PM 51.8 °F - 35.6 °F 54% 30.21 in 10.0 mi NNW 3.5 mph - N/A   Clear
6:55 PM 51.8 °F - 35.6 °F 54% 30.22 in 10.0 mi Calm Calm - N/A   Clear
7:15 PM 51.8 °F - 33.8 °F 50% 30.21 in 10.0 mi Calm Calm - N/A   Clear
7:35 PM 51.8 °F - 33.8 °F 50% 30.21 in 10.0 mi NE 3.5 mph - N/A   Clear
7:55 PM 48.2 °F - 33.8 °F 58% 30.21 in 10.0 mi Calm Calm - N/A   Clear
8:15 PM 48.2 °F - 33.8 °F 58% 30.21 in 10.0 mi Calm Calm - N/A   Clear
8:35 PM 48.2 °F - 35.6 °F 62% 30.21 in 10.0 mi Calm Calm - N/A   Clear
8:55 PM 48.2 °F - 35.6 °F 62% 30.21 in 10.0 mi ENE 3.5 mph - N/A   Clear
9:15 PM 48.2 °F - 35.6 °F 62% 30.20 in 10.0 mi Calm Calm - N/A   Clear
9:35 PM 48.2 °F - 35.6 °F 62% 30.20 in 10.0 mi Calm Calm - N/A   Clear
9:55 PM 48.2 °F - 33.8 °F 58% 30.19 in 10.0 mi Calm Calm - N/A   Clear
10:15 PM 46.4 °F 45.2 °F 35.6 °F 66% 30.19 in 10.0 mi NNW 3.5 mph - N/A   Clear
10:35 PM 44.6 °F - 35.6 °F 71% 30.19 in 10.0 mi Calm Calm - N/A   Clear
10:55 PM 44.6 °F - 35.6 °F 71% 30.19 in 10.0 mi Calm Calm - N/A   Clear
11:55 PM 46.4 °F - 35.6 °F 66% 30.18 in 10.0 mi Calm Calm - N/A   Clear